Date String (YYYY-MM-DD hh:mm:ss) UTC,Instrument flags,Ambient pressure (hPa),Sample flow (lpm),Bypass flow (lpm),Sample temperature (°C),Ambient temperature (°C),ASC tube jacket temperature (°C),LED temperature (°C),Box temperature (°C),Sample RH (%),Span deviation,Mass concentration (μg/m³),Mass concentration (μg/m³),Mass concentration (μg/m³)
DateTimeUTC,F1_M11,P_M11,Q1_M11,Q2_M11,T1_M11,T2_M11,T3_M11,T4_M11,T5_M11,U1_M11,ZSPAN_M11,X2_M11,X0_M11,X1_M11
2021-12-30 00:00:00,,0814.6,4.99,0.00,22.7,23.1,00.0,31.5,24.6,06.8,0000.0,0004.03,0016.86,0001.97
2021-12-30 00:01:00,,0814.5,5.00,0.00,22.7,22.9,00.0,31.5,24.5,06.8,0000.0,0004.02,0017.18,0001.97
2021-12-30 00:02:00,,0814.7,5.00,0.00,22.7,22.7,00.0,31.5,24.4,06.8,0000.0,0004.03,0016.61,0001.97
2021-12-30 00:03:00,,0814.7,5.00,0.00,22.6,22.5,00.0,31.5,24.4,06.8,0000.0,0004.05,0016.81,0001.99
2021-12-30 00:04:00,,0814.6,5.01,0.00,22.6,22.4,00.0,31.5,24.3,06.8,0000.0,0003.97,0016.61,0001.98
2021-12-30 00:05:00,,0814.5,4.99,0.00,22.6,22.3,00.0,31.5,24.2,06.8,0000.0,0003.98,0016.24,0001.99
2021-12-30 00:06:00,,0814.6,5.00,0.00,22.6,22.2,00.0,31.5,24.2,06.8,0000.0,0003.99,0016.14,0002.00
2021-12-30 00:07:00,,0814.6,5.00,0.00,22.6,22.1,00.0,31.5,24.2,06.8,0000.0,0003.93,0016.18,0002.01
2021-12-30 00:08:00,,0814.8,5.01,0.00,22.6,22.0,00.0,31.5,24.2,06.8,0000.0,0003.92,0016.24,0002.02
2021-12-30 00:09:00,,0814.5,5.00,0.00,22.5,22.0,00.0,31.5,24.1,06.8,0000.0,0003.92,0015.94,0002.02
2021-12-30 00:10:00,,0814.7,4.99,0.00,22.5,21.9,00.0,31.5,24.1,06.8,0000.0,0003.93,0016.47,0002.02
2021-12-30 00:11:00,,0814.5,5.01,0.00,22.5,21.9,00.0,31.5,24.1,06.8,0000.0,0003.93,0016.37,0002.02
2021-12-30 00:12:00,,0814.4,5.00,0.00,22.4,21.8,00.0,31.5,24.1,06.8,0000.0,0003.90,0016.13,0002.04
2021-12-30 00:13:00,,0814.4,5.00,0.00,22.4,21.7,00.0,31.5,24.0,06.9,0000.0,0003.85,0015.33,0002.05
2021-12-30 00:14:00,,0814.4,5.00,0.00,22.4,21.6,00.0,31.5,24.0,06.9,0000.0,0003.86,0016.14,0002.07
2021-12-30 00:15:00,,0814.5,4.99,0.00,22.3,21.5,00.0,31.5,23.9,06.9,0000.0,0003.92,0016.55,0002.08
2021-12-30 00:16:00,,0814.4,5.01,0.00,22.3,21.3,00.0,31.4,23.8,06.9,0000.0,0003.94,0017.35,0002.06
2021-12-30 00:17:00,,0814.4,4.99,0.00,22.2,21.2,00.0,31.4,23.8,06.9,0000.0,0003.90,0017.32,0002.04
2021-12-30 00:18:00,,0814.4,5.00,0.00,22.2,21.2,00.0,31.4,23.8,07.0,0000.0,0003.94,0016.68,0002.06
2021-12-30 00:19:00,,0814.4,4.99,0.00,22.2,21.2,00.0,31.4,23.8,07.0,0000.0,0003.96,0016.64,0002.06
2021-12-30 00:20:00,,0814.6,5.00,0.00,22.2,21.2,00.0,31.3,23.8,07.0,0000.0,0003.93,0017.00,0002.04
2021-12-30 00:21:00,,0814.6,5.00,0.00,22.1,21.2,00.0,31.3,23.8,07.0,0000.0,0003.95,0016.72,0002.05
2021-12-30 00:22:00,,0814.6,5.02,0.00,22.1,21.2,00.0,31.3,23.8,07.0,0000.0,0003.94,0016.35,0002.04
2021-12-30 00:23:00,,0814.6,4.99,0.00,22.1,21.3,00.0,31.3,23.8,07.0,0000.0,0003.98,0015.84,0002.04
2021-12-30 00:24:00,,0814.6,5.01,0.00,22.1,21.3,00.0,31.3,23.8,07.0,0000.0,0003.98,0015.62,0002.05
2021-12-30 00:25:00,,0814.9,4.99,0.00,22.1,21.3,00.0,31.3,23.8,07.0,0000.0,0003.99,0015.48,0002.02
2021-12-30 00:26:00,,0815.1,5.02,0.00,22.1,21.3,00.0,31.2,23.8,07.0,0000.0,0004.03,0015.69,0002.03
2021-12-30 00:27:00,,0815.1,5.00,0.00,22.1,21.3,00.0,31.2,23.8,07.0,0000.0,0004.03,0016.02,0002.07
2021-12-30 00:28:00,,0815.2,5.00,0.00,22.1,21.3,00.0,31.2,23.8,07.0,0000.0,0004.03,0015.87,0002.08
2021-12-30 00:29:00,,0815.0,4.99,0.00,22.1,21.4,00.0,31.2,23.8,07.0,0000.0,0003.99,0015.16,0002.08
2021-12-30 00:30:00,,0815.0,5.01,0.00,22.1,21.4,00.0,31.2,23.7,07.0,0000.0,0003.99,0014.99,0002.09
2021-12-30 00:31:00,,0815.1,5.00,0.00,22.1,21.4,00.0,31.2,23.7,07.0,0000.0,0004.02,0015.37,0002.11
2021-12-30 00:32:00,,0815.1,4.99,0.00,22.1,21.4,00.0,31.2,23.7,07.0,0000.0,0004.00,0015.69,0002.11
2021-12-30 00:33:00,,0814.9,5.00,0.00,22.1,21.4,00.0,31.2,23.7,07.0,0000.0,0004.02,0016.05,0002.13
2021-12-30 00:34:00,,0814.8,5.01,0.00,22.1,21.7,00.0,31.2,23.8,07.0,0000.0,0004.04,0016.14,0002.13
2021-12-30 00:35:00,,0814.9,5.00,0.00,22.2,22.4,00.0,31.2,24.1,06.9,0000.0,0004.10,0016.37,0002.13
2021-12-30 00:36:00,,0815.2,5.00,0.00,22.4,23.0,00.0,31.3,24.3,06.9,0000.0,0004.04,0016.16,0002.14
2021-12-30 00:37:00,,0815.0,4.99,0.00,22.4,22.8,00.0,31.3,24.3,06.9,0000.0,0004.03,0016.43,0002.17
2021-12-30 00:38:00,,0815.2,5.01,0.00,22.5,22.6,00.0,31.3,24.3,06.8,0000.0,0004.04,0016.63,0002.16
2021-12-30 00:39:00,,0815.4,4.99,0.00,22.4,22.5,00.0,31.3,24.2,06.8,0000.0,0004.08,0016.76,0002.16
2021-12-30 00:40:00,,0815.2,5.00,0.00,22.4,22.3,00.0,31.3,24.1,06.8,0000.0,0004.17,0016.77,0002.19
2021-12-30 00:41:00,,0815.0,5.00,0.00,22.4,22.2,00.0,31.3,24.1,06.8,0000.0,0004.18,0016.76,0002.21
2021-12-30 00:42:00,,0815.0,4.99,0.00,22.4,22.1,00.0,31.3,24.1,06.8,0000.0,0004.16,0017.30,0002.22
2021-12-30 00:43:00,,0815.1,5.01,0.00,22.4,22.0,00.0,31.3,24.1,06.8,0000.0,0004.16,0018.06,0002.24
2021-12-30 00:44:00,,0815.1,5.00,0.00,22.4,21.9,00.0,31.3,24.1,06.8,0000.0,0004.18,0018.10,0002.28
2021-12-30 00:45:00,,0815.2,4.99,0.00,22.4,21.9,00.0,31.3,24.1,06.8,0000.0,0004.26,0018.41,0002.32
2021-12-30 00:46:00,,0815.1,5.01,0.00,22.4,21.8,00.0,31.3,24.1,06.8,0000.0,0004.34,0019.07,0002.37
2021-12-30 00:47:00,,0815.3,4.98,0.00,22.4,21.8,00.0,31.4,24.1,06.8,0000.0,0004.43,0019.94,0002.43
2021-12-30 00:48:00,,0814.8,5.02,0.00,22.4,21.8,00.0,31.4,24.1,06.8,0000.0,0004.43,0019.17,0002.44
2021-12-30 00:49:00,,0814.8,5.00,0.00,22.4,21.8,00.0,31.4,24.1,06.8,0000.0,0004.40,0018.61,0002.47
2021-12-30 00:50:00,,0815.1,4.99,0.00,22.4,21.7,00.0,31.4,24.0,06.8,0000.0,0004.41,0018.62,0002.52
2021-12-30 00:51:00,,0814.8,5.01,0.00,22.4,21.7,00.0,31.4,24.0,06.8,0000.0,0004.42,0018.71,0002.55
2021-12-30 00:52:00,,0814.7,4.98,0.00,22.4,21.7,00.0,31.4,24.0,06.8,0000.0,0004.48,0019.12,0002.59
2021-12-30 00:53:00,,0814.8,5.00,0.00,22.3,21.7,00.0,31.4,24.0,06.8,0000.0,0004.57,0018.91,0002.62
2021-12-30 00:54:00,,0814.7,5.00,0.00,22.3,21.6,00.0,31.4,24.0,06.8,-000.2,0004.70,0017.86,0002.66
2021-12-30 00:55:00,,0814.8,5.00,0.00,22.3,21.6,00.0,31.3,23.9,06.8,0000.0,0004.76,0017.27,0002.67
2021-12-30 00:56:00,,0815.0,5.01,0.00,22.3,21.6,00.0,31.3,23.9,06.8,0000.0,0004.72,0016.50,0002.68
2021-12-30 00:57:00,,0814.9,5.00,0.00,22.3,21.6,00.0,31.3,23.9,06.8,0000.0,0004.63,0015.61,0002.68
2021-12-30 00:58:00,,0814.9,4.99,0.00,22.3,21.6,00.0,31.3,23.9,06.8,0000.0,0004.62,0015.22,0002.70
2021-12-30 00:59:00,,0814.9,5.01,0.00,22.3,21.6,00.0,31.3,23.9,06.8,0000.0,0004.69,0015.79,0002.75
